sat.trackr.live / text

‹ back to catalog

STARLINK-30826

NORAD 58188 · 2023-167P

PAYLOAD ACTIVE UNKNOWN

§ Identity

Operator
Country
US
Launch date
2023-10-30
Launch site
AFETR
Launch vehicle
Mass (kg)
RCS (m²)

Purposes: comms

External: N2YO · Heavens-Above · Gunter

§ Orbital elements

Epoch: 2026-05-25T04:20:41.426592Z

Period
94.27 min
Inclination
43.0061°
Eccentricity
0.0001306
Mean motion
15.27571172 rev/d
Perigee alt
482.2 km
Apogee alt
484.0 km
Semi-major
6,861.2 km
B*
2.0818e-5
RAAN
71.4000°
Arg perigee
290.7427°
Mean anomaly
69.3285°
Rev number
14,268

§ Raw data

STARLINK-308261 58188U 23167P   26145.18103503  .00000311  00000+0  20818-4 0  99952 58188  43.0061  71.4000 0001306 290.7427  69.3285 15.27571172142681

JSON: /api/v1/satellites/58188 · /tle

For live sub-satellite position, see the globe view (requires WebGL).

§ Visibility from observer

Set your observer location to see the next 7 days of passes ≥ 10°. The values pass through the URL so the page stays shareable.

No JS? Fill the form by hand. The geolocation button needs JavaScript.